CAPE
0 0 0 0 0 0 0 0 0 4 0 0 0 0 0 0 0 0 0 0 0 0 0 0 2026 2001 1732 1564 1492 1422 1122 1117 956 711 579 576 392 549 435 279 133 94 153 96
0 0 0 0 0 0 5 2 0 3 0 0 0 0 0 0 0 0 0 0 0 0 0 29 2193 1948 1579 1370 1166 1282 1129 1077 836 729 632 711 653 584 522 471 388 292 170 341
8 0 0 0 0 0 3 0 0 0 0 0 0 0 0 0 0 0 0 0 0 0 0 9 1668 1789 1565 1234 1152 1110 1049 889 1052 953 759 636 798 945 805 1030 985 1000 776 772
5 0 0 0 2 0 0 0 0 28 5 0 0 0 0 0 0 0 0 0 0 0 0 4 1003 1641 1062 279 240 1188 1262 1091 1085 995 962 1047 1032 962 821 370 257 361 105 36
0 0 2 0 0 0 0 0 0 19 13 0 0 0 0 0 0 0 0 0 0 0 0 0 468 1318 833 847 1129 1383 1068 1058 950 1276 1367 1318 979 387 87 37 43 37 55 54
0 0 5 0 0 0 18 10 0 26 23 16 0 0 0 0 0 0 0 0 0 0 0 0 671 1155 1444 1518 1439 1223 981 937 853 1271 1411 1259 715 218 42 0 13 0 0 0
0 0 2 0 3 0 13 11 5 6 18 1 1 0 0 0 0 0 0 0 0 0 0 0 139 1233 1477 1450 1294 1081 984 866 814 1066 1327 1249 800 294 37 0 0 0 0 0
0 0 4 0 0 5 1 4 3 1 0 0 6 2 0 0 0 0 0 0 0 0 0 0 0 280 1351 1476 1101 1032 983 788 745 780 895 797 312 3 0 0 0 0 0 0
0 0 0 12 14 2 13 3 1 0 0 16 3 0 0 0 0 0 0 0 0 0 0 0 0 0 703 1002 1057 1068 926 880 851 798 607 541 122 16 45 0 0 0 0 0
3 0 0 1 9 7 8 6 0 1 0 8 10 0 0 0 0 0 0 0 0 0 0 0 0 4 753 772 974 1129 709 495 500 559 518 415 552 278 26 0 0 0 0 0
0 0 0 0 0 1 8 10 9 1 7 1 2 0 0 0 0 0 0 0 0 0 0 0 0 68 616 848 1028 382 289 207 80 21 10 2 2 0 1 1 0 0 0 0
2 0 0 0 3 2 1 4 10 5 0 0 8 0 0 0 0 0 0 0 0 0 0 0 125 785 845 392 151 67 31 0 2 2 3 2 0 1 2 0 0 0 0 0
0 0 0 0 1 1 2 0 2 6 8 0 11 28 338 181 0 0 0 0 0 0 176 509 483 256 54 2 0 1 1 0 0 0 0 0 0 2 0 0 0 0 0 0
4 0 0 0 0 0 0 5 4 3 20 0 3 16 177 482 173 25 235 13 103 281 390 225 48 31 1 1 0 2 4 2 0 0 0 0 0 0 0 0 0 0 0 0
0 0 1 2 1 1 2 0 8 11 18 0 2 0 34 143 366 560 371 554 569 506 121 37 23 3 5 5 5 4 2 1 0 0 0 0 0 0 0 0 0 0 0 0
0 0 0 0 0 3 0 3 2 7 2 1 7 0 31 20 461 1103 930 870 465 169 10 2 3 4 4 5 3 2 1 0 0 0 0 0 0 0 0 0 0 0 0 0
0 0 0 0 0 1 2 1 0 3 0 5 10 2 6 119 534 846 823 413 146 7 2 3 4 5 5 3 2 2 0 0 0 0 0 0 0 0 0 0 0 0 0 0
0 0 0 0 0 0 5 2 0 16 10 21 10 0 2 4 1 0 131 10 2 3 4 5 4 3 3 2 1 0 0 0 0 0 0 0 0 0 0 0 0 0 0 0
2 1 0 0 3 0 6 6 1 6 10 23 2 0 0 2 0 4 4 1 3 3 4 3 3 3 3 1 0 0 0 0 0 0 0 0 0 0 0 0 0 0 0 0
2 1 1 1 2 3 1 1 1 59 26 50 0 2 5 0 4 4 4 4 4 3 3 4 3 3 3 1 0 0 0 0 0 0 0 0 0 0 0 0 0 0 0 0
1 0 2 0 0 11 3 2 14 12 0 69 2 19 8 0 4 2 2 3 3 3 3 2 2 5 2 0 0 0 0 0 0 0 0 0 0 0 0 0 0 0 0 0
0 0 0 1 0 0 0 0 23 8 139 0 3 2 1 5 2 2 3 3 3 3 3 3 2 2 0 0 0 0 0 0 0 0 0 0 0 0 0 0 0 0 0 0
0 0 0 0 0 1 0 3 4 2 3 1 1 3 1 4 3 2 3 2 3 4 3 2 0 0 0 0 0 0 0 0 0 0 0 0 0 0 0 0 0 0 0 0
0 0 1 0 0 2 2 4 3 2 1 2 3 2 2 1 3 4 3 2 4 1 0 0 0 0 0 0 0 0 0 0 0 0 0 0 0 0 0 0 0 0 0 0
0 0 1 0 0 1 0 3 3 2 2 1 1 2 3 0 1 3 2 3 2 1 0 0 0 0 0 0 0 0 0 0 0 0 0 0 0 0 0 0 0 0 0 0
0 0 0 0 1 1 2 5 2 2 3 2 1 1 2 1 3 2 2 2 2 1 0 0 0 0 0 0 0 0 0 0 0 0 0 0 0 0 0 0 0 0 0 0
CIN
-0 -0 -0 -0 -0 -0 -0 -0 -0 -1 -0 -0 -0 -0 -0 -0 -0 -0 -0 -0 -0 -0 -0 -0 -120 -129 -149 -162 -188 -231 -309 -358 -400 -428 -394 -342 -338 -303 -270 -246 -226 -188 -147 -175
-0 -0 -0 -0 -0 -2 -2 -3 -0 -3 -0 -0 -0 -0 -0 -0 -0 -0 -0 -0 -0 -0 -0 -173 -71 -97 -179 -202 -212 -215 -268 -345 -399 -402 -393 -314 -307 -254 -182 -146 -119 -109 -135 -74
-0 -0 -0 -0 -0 -1 -3 -0 -0 -0 -0 -0 -0 -0 -0 -0 -0 -0 -0 -0 -0 -0 -0 -80 -136 -127 -147 -194 -229 -196 -303 -347 -345 -336 -325 -315 -257 -149 -88 -36 -28 -21 -36 -23
-0 -0 -0 -0 -0 -0 -0 -0 -1 -4 -3 -0 -0 -0 -0 -0 -0 -0 -0 -0 -0 -0 -0 -152 -229 -110 -212 -289 -335 -203 -264 -346 -301 -310 -261 -219 -147 -98 -93 -140 -118 -76 -155 -195
-1 -0 -1 -0 -0 -0 -1 -0 -0 -3 -8 -0 -0 -0 -0 -0 -0 -0 -0 -0 -0 -0 -0 -0 -261 -177 -235 -244 -215 -213 -282 -288 -300 -225 -164 -115 -122 -201 -260 -238 -208 -187 -131 -71
-0 -1 -2 -1 -0 -0 -4 -5 -1 -3 -6 -1 -0 -0 -0 -0 -0 -0 -0 -0 -0 -0 -0 -0 -217 -209 -175 -177 -181 -243 -281 -318 -295 -194 -135 -95 -149 -217 -175 -0 -105 -0 -0 -0
-0 -0 -1 -0 -1 -0 -1 -3 -3 -2 -4 -3 -1 -0 -0 -0 -0 -0 -0 -0 -0 -0 -0 -0 -233 -220 -205 -216 -238 -298 -328 -320 -280 -196 -105 -62 -73 -129 -163 -0 -0 -0 -0 -0
-0 -0 -6 -0 -0 -2 -1 -1 -2 -3 -4 -0 -1 -1 -0 -0 -0 -0 -0 -0 -0 -0 -0 -0 -0 -273 -227 -227 -330 -322 -305 -299 -259 -194 -128 -105 -177 -29 -0 -0 -0 -0 -0 -0
-0 -0 -0 -9 -4 -4 -1 -1 -2 -0 -1 -3 -5 -0 -0 -0 -0 -0 -0 -0 -0 -0 -0 -0 -0 -0 -174 -288 -325 -290 -297 -254 -214 -179 -173 -151 -247 -272 -229 -56 -0 -0 -0 -0
-0 -0 -0 -1 -1 -1 -2 -3 -1 -3 -1 -3 -1 -0 -0 -0 -0 -0 -0 -0 -0 -0 -0 -0 -0 -343 -276 -346 -296 -240 -297 -321 -256 -191 -178 -176 -101 -142 -132 -0 -0 -0 -0 -0
-0 -0 -0 -0 -0 -0 -1 -1 -2 -1 -8 -3 -2 -0 -0 -0 -0 -0 -0 -0 -0 -0 -0 -0 -0 -350 -337 -286 -227 -399 -395 -347 -358 -347 -109 -122 -0 -0 -0 -0 -0 -0 -0 -0
-0 -0 -0 -0 -0 -1 -1 -2 -1 -2 -0 -0 -5 -0 -0 -0 -0 -0 -0 -0 -0 -0 -0 -0 -270 -261 -270 -370 -451 -500 -338 -0 -0 -0 -0 -0 -0 -0 -0 -0 -0 -0 -0 -0
-0 -0 -0 -0 -0 -1 -0 -0 -1 -1 -9 -0 -3 -3 -2 -55 -0 -0 -0 -0 -0 -0 -220 -191 -228 -364 -488 -0 -0 -0 -0 -0 -0 -0 -0 -0 -0 -0 -0 -0 -0 -0 -0 -0
-0 -0 -0 -0 -0 -0 -0 -0 -0 -2 -0 -1 -1 -18 -0 -1 -64 -101 -106 -223 -270 -217 -198 -278 -440 -493 -0 -0 -0 -0 -0 -0 -0 -0 -0 -0 -0 -0 -0 -0 -0 -0 -0 -0
-0 -0 -0 -0 -0 -0 -0 -0 -1 -18 -3 -0 -1 -0 -47 -34 -82 -53 -128 -102 -101 -114 -284 -421 -531 -10 -0 -0 -0 -0 -0 -0 -0 -0 -0 -0 -0 -0 -0 -0 -0 -0 -0 -0
-0 -0 -0 -0 -0 -0 -0 -0 -0 -1 -1 -2 -1 -0 -0 -124 -72 -3 -23 -43 -122 -226 -411 -0 -0 -0 -0 -0 -0 -0 -0 -0 -0 -0 -0 -0 -0 -0 -0 -0 -0 -0 -0 -0
-0 -0 -0 -0 -0 -0 -0 -0 -0 -0 -0 -46 -16 -1 -11 -54 -37 -6 -23 -101 -212 -295 -0 -0 -0 -0 -0 -0 -0 -0 -0 -0 -0 -0 -0 -0 -0 -0 -0 -0 -0 -0 -0 -0
-0 -0 -0 -0 -0 -0 -3 -3 -0 -38 -30 -39 -37 -4 -11 -0 -0 -0 -208 -148 -0 -0 -0 -0 -0 -0 -0 -0 -0 -0 -0 -0 -0 -0 -0 -0 -0 -0 -0 -0 -0 -0 -0 -0
-0 -0 -0 -0 -2 -0 -1 -0 -0 -3 -18 -24 -19 -0 -0 -0 -0 -0 -0 -0 -0 -0 -0 -0 -0 -0 -0 -0 -0 -0 -0 -0 -0 -0 -0 -0 -0 -0 -0 -0 -0 -0 -0 -0
-0 -0 -0 -0 -5 -2 -16 -0 -0 -3 -9 -95 -0 -29 -26 -0 -158 -0 -0 -0 -0 -0 -0 -0 -0 -0 -0 -0 -0 -0 -0 -0 -0 -0 -0 -0 -0 -0 -0 -0 -0 -0 -0 -0
-0 -0 -0 -0 -3 -1 -0 -0 -50 -11 -0 -31 -27 -19 -10 -0 -0 -0 -0 -0 -0 -0 -0 -0 -0 -0 -0 -0 -0 -0 -0 -0 -0 -0 -0 -0 -0 -0 -0 -0 -0 -0 -0 -0
-0 -0 -0 -0 -0 -0 -0 -0 -16 -12 -29 -0 -0 -0 -0 -0 -0 -0 -0 -0 -0 -0 -0 -0 -0 -0 -0 -0 -0 -0 -0 -0 -0 -0 -0 -0 -0 -0 -0 -0 -0 -0 -0 -0
-0 -0 -0 -0 -0 -0 -0 -0 -0 -0 -0 -0 -0 -0 -0 -0 -0 -0 -0 -0 -0 -0 -0 -0 -0 -0 -0 -0 -0 -0 -0 -0 -0 -0 -0 -0 -0 -0 -0 -0 -0 -0 -0 -0
-0 -0 -0 -0 -0 -0 -0 -0 -0 -0 -0 -0 -0 -0 -0 -0 -0 -0 -0 -0 -0 -0 -0 -0 -0 -0 -0 -0 -0 -0 -0 -0 -0 -0 -0 -0 -0 -0 -0 -0 -0 -0 -0 -0
-0 -0 -0 -0 -0 -0 -0 -0 -0 -0 -0 -0 -0 -0 -0 -0 -0 -0 -0 -0 -0 -0 -0 -0 -0 -0 -0 -0 -0 -0 -0 -0 -0 -0 -0 -0 -0 -0 -0 -0 -0 -0 -0 -0
-0 -0 -0 -0 -0 -0 -0 -0 -0 -0 -0 -0 -0 -0 -0 -0 -0 -0 -0 -0 -0 -0 -0 -0 -0 -0 -0 -0 -0 -0 -0 -0 -0 -0 -0 -0 -0 -0 -0 -0 -0 -0 -0 -0
Wind_Speed
9 3 9 11 20 39 40 47 50 41 36 36 46 50 49 47 44 40 38 41 36 36 32 30 29 26 25 24 22 20 19 17 13 11 13 14 11 10 11 14 15 17 18 18
7 16 13 12 10 28 39 44 53 48 43 41 45 48 45 44 47 44 41 39 39 37 32 27 27 25 23 23 22 22 24 18 13 10 14 13 8 10 14 15 17 18 17 17
10 7 4 2 6 10 35 41 47 49 44 45 45 56 52 46 44 44 42 40 38 37 33 27 26 25 21 23 20 20 26 20 13 12 8 12 11 12 13 15 18 19 18 17
5 4 3 6 10 10 32 32 37 42 45 54 38 56 43 44 44 43 43 42 42 36 32 28 28 26 22 22 23 20 15 15 14 11 11 12 14 15 15 15 16 16 16 16
13 10 6 2 5 9 9 28 32 38 44 45 47 49 51 40 46 44 43 45 43 37 32 29 25 25 22 19 18 17 19 14 11 10 10 11 10 10 12 14 15 16 16 18
11 8 6 3 6 7 4 22 29 34 40 52 50 52 49 46 45 44 44 42 42 39 33 30 25 23 23 21 19 20 15 13 11 8 7 8 7 8 11 13 15 16 17 17
4 6 9 4 5 8 11 5 24 34 42 50 41 49 56 39 38 38 43 41 41 40 35 30 24 21 22 21 18 16 13 12 8 5 4 4 5 7 8 10 13 15 16 18
9 9 10 8 7 6 10 11 22 32 38 50 40 51 56 53 43 35 31 41 40 42 38 34 29 26 19 19 18 15 11 9 6 4 2 2 3 4 5 7 8 11 14 19
10 8 12 5 3 10 10 12 12 24 31 38 44 55 47 41 43 40 39 37 42 44 42 37 32 32 27 23 20 15 11 9 6 3 2 3 1 2 5 6 10 13 12 16
11 7 10 15 10 11 10 10 5 21 25 36 41 60 55 43 46 46 40 39 41 41 42 38 34 33 27 24 18 14 10 7 5 4 2 0 2 3 5 7 12 13 14 17
6 5 9 11 8 8 11 12 9 4 25 28 39 48 50 43 35 45 44 39 37 39 39 37 34 30 25 21 17 12 8 6 5 3 0 2 3 3 5 8 11 13 13 14
7 6 3 4 10 8 13 16 13 3 24 26 29 34 32 47 36 35 41 38 31 35 34 32 29 27 23 19 16 13 9 6 3 1 2 3 4 4 5 8 10 12 13 14
11 10 10 10 12 6 6 18 18 13 26 31 31 28 22 33 35 33 36 32 29 31 28 27 26 25 22 18 15 12 9 6 5 5 4 5 5 6 8 10 11 12 14 15
5 4 2 4 8 11 9 10 17 23 31 31 29 26 22 25 32 33 30 29 28 29 28 26 24 22 19 16 14 12 9 7 7 8 7 8 9 10 10 11 11 12 14 16
10 5 3 8 9 9 8 7 17 27 36 31 25 30 18 25 29 30 27 27 27 29 28 25 22 20 18 16 14 11 9 8 9 9 8 9 10 10 11 11 12 13 15 17
14 8 8 1 3 7 11 18 26 30 35 32 28 29 22 24 31 29 27 27 28 28 26 23 22 20 18 17 15 12 10 9 10 10 9 9 10 10 11 12 13 14 16 17
14 14 12 13 9 13 11 18 26 30 33 30 26 24 17 20 21 24 25 25 26 26 24 23 22 20 19 16 14 12 12 11 9 8 8 8 9 10 11 12 13 15 16 18
8 12 14 15 17 17 13 18 30 31 28 29 20 16 17 20 15 16 20 22 23 23 22 21 21 20 17 15 14 14 13 11 9 7 8 8 9 10 11 13 15 16 17 18
5 14 16 16 16 15 12 5 22 29 24 24 20 21 20 22 16 15 18 20 21 21 20 20 19 18 17 15 15 15 12 9 8 7 7 8 9 10 12 13 15 16 18 19
10 18 17 18 21 14 11 11 13 25 21 24 22 27 26 26 26 23 20 20 20 19 18 19 19 19 16 13 13 13 10 8 7 7 8 9 10 11 13 14 15 17 18 19
7 13 14 18 23 20 7 11 17 20 19 29 24 23 24 23 24 22 20 18 19 20 20 19 19 17 15 12 12 12 10 9 8 8 9 10 11 12 14 15 16 17 18 20
18 10 17 17 17 23 9 10 15 13 10 17 22 18 13 18 21 21 19 20 21 22 22 20 20 16 13 10 11 11 10 9 9 9 10 12 12 14 15 16 17 18 19 20
19 12 17 17 10 8 10 12 10 13 15 21 18 15 14 18 20 20 20 21 23 24 22 20 18 15 11 9 9 12 10 11 12 12 13 14 15 15 15 17 18 19 20 21
9 4 14 15 6 4 3 2 2 2 8 11 18 15 16 18 20 21 22 22 24 23 21 18 16 14 12 9 10 12 13 13 14 14 14 14 14 16 17 19 20 21 22 23
7 5 7 13 10 10 5 2 4 1 5 10 17 14 15 17 23 22 23 23 22 20 18 15 14 13 13 12 12 13 14 14 13 13 13 14 15 17 19 20 21 23 25 25
3 7 15 14 8 11 11 4 4 3 4 8 11 10 16 20 22 22 22 21 19 18 15 14 13 14 14 13 15 12 11 11 12 13 13 14 15 17 18 20 23 26 27 29
Wind_Direction
359 315 300 285 290 276 269 254 250 251 251 257 247 248 246 247 249 246 245 243 243 243 249 247 228 226 223 220 221 227 230 229 229 241 260 274 284 292 298 301 304 304 304 304
352 233 238 240 249 283 267 258 248 250 251 253 251 248 248 246 243 244 242 241 239 242 244 239 224 221 217 217 225 234 239 236 232 242 264 285 296 301 303 304 305 305 307 308
237 253 342 298 232 266 269 259 249 246 247 251 253 250 246 243 242 241 239 238 237 237 238 233 219 219 219 212 213 234 243 242 241 257 264 285 292 307 306 311 312 309 308 311
313 349 331 237 216 204 272 269 256 246 243 240 246 240 241 239 237 236 235 233 232 234 235 234 224 221 218 201 218 230 219 234 245 252 265 278 284 288 302 311 319 328 330 330
349 0 350 347 212 188 286 271 257 247 244 243 241 241 239 241 231 231 231 229 230 231 233 232 228 222 217 209 206 216 231 236 245 254 264 279 288 303 318 323 328 331 335 332
226 346 11 140 69 164 104 278 257 250 243 239 237 235 236 233 229 229 229 229 229 228 231 232 232 227 216 216 221 229 229 235 238 247 268 279 291 309 325 329 332 338 341 338
262 57 27 123 98 71 132 312 255 245 238 235 236 235 230 231 233 232 230 228 227 226 228 228 225 223 218 216 218 223 223 226 224 229 265 291 312 319 331 342 354 1 6 357
64 71 69 64 135 91 148 145 263 251 243 237 238 233 229 230 233 235 237 228 226 223 224 225 226 224 216 212 216 217 211 205 202 220 274 347 1 340 4 1 26 31 23 19
53 63 27 40 55 156 123 158 161 273 254 242 237 234 235 235 231 229 230 227 222 221 221 222 223 221 220 220 221 223 223 223 230 223 256 301 14 32 355 32 359 350 11 36
40 28 49 35 53 166 154 125 88 267 257 244 237 228 224 226 226 225 226 226 222 221 219 220 222 220 221 222 222 223 226 231 237 244 248 335 64 0 2 6 16 35 44 65
18 27 39 30 43 138 150 160 134 35 264 251 235 230 224 224 228 222 223 225 223 219 217 218 219 219 220 220 219 216 219 228 239 247 341 34 27 14 32 44 43 55 51 47
25 27 10 32 36 98 172 172 162 329 260 254 247 230 229 220 224 223 221 222 223 216 215 214 213 212 212 215 213 214 217 220 202 154 95 65 68 53 47 54 53 49 49 37
31 27 21 41 55 100 81 176 179 171 250 240 233 226 240 221 220 224 219 219 218 208 205 203 206 208 207 206 204 205 204 188 137 113 98 76 64 67 66 60 56 49 43 39
19 8 239 210 44 53 48 132 173 182 224 230 228 236 233 218 216 219 218 215 208 201 196 199 200 202 199 197 193 189 183 157 125 108 94 82 76 72 64 58 44 37 32 28
46 44 139 198 206 199 170 135 169 178 207 220 231 228 241 223 218 217 214 203 198 195 193 192 189 184 178 173 170 172 166 146 117 108 95 83 73 65 56 48 44 37 28 25
41 57 62 89 207 167 158 180 202 185 205 213 220 231 235 232 216 209 202 194 192 191 189 185 181 175 171 166 162 156 145 131 116 107 95 83 71 58 51 49 40 32 29 28
54 50 51 49 61 78 107 166 178 194 207 212 212 218 234 210 197 199 191 189 191 187 183 179 177 173 170 163 154 143 134 125 118 105 89 72 60 52 47 45 34 29 26 25
80 69 90 78 94 78 320 205 178 185 203 210 222 214 213 197 187 188 185 183 185 180 174 173 170 165 162 152 139 129 124 120 111 96 80 61 50 49 46 37 31 27 24 19
99 99 93 100 113 20 355 342 199 186 195 207 212 210 200 192 179 184 184 173 175 169 162 162 160 155 147 142 135 126 119 112 100 85 68 55 50 49 43 35 30 25 25 24
102 93 108 117 113 161 195 230 231 189 204 197 207 197 195 197 189 187 183 164 164 159 158 151 148 142 138 137 132 121 115 105 90 75 64 53 46 44 38 33 28 28 29 26
111 121 119 118 115 146 239 254 209 192 201 185 196 193 197 204 192 180 174 164 155 154 149 144 138 136 135 137 128 112 105 93 82 71 56 46 42 40 36 34 31 27 23 23
93 131 119 130 144 133 271 237 209 232 219 202 197 202 205 171 171 174 170 165 153 151 148 145 137 135 137 134 119 108 98 88 77 64 53 47 41 37 35 30 23 22 23 22
98 125 121 133 164 174 202 194 237 224 200 192 196 192 177 174 172 169 167 161 153 147 144 149 142 132 129 128 113 101 92 83 74 65 56 50 44 35 27 25 23 21 21 21
128 236 123 146 174 263 225 274 240 199 188 190 185 180 180 167 164 162 160 154 145 146 144 146 133 123 113 107 96 88 85 79 73 64 55 45 40 36 29 27 25 26 23 21
127 185 173 159 179 177 168 285 343 356 173 174 177 177 175 164 170 156 153 150 149 144 143 138 126 111 99 92 84 79 78 76 68 60 54 48 42 39 38 32 28 28 23 22
195 158 118 140 198 177 187 301 354 54 166 174 166 161 174 159 158 154 152 151 142 137 133 127 112 100 91 85 80 74 68 68 66 59 49 44 44 44 42 39 36 35 38 35